AAL480 KSAN-KPHX

Flight info

Callsign AAL480
Flight time 0h 52m
Altitude 31000
Route ZZOOO4 HOGGZ HYDRR1
Aircraft A320/M-SDE3FGHIRWY/LB1

Departure

Time 2026-04-22 04:28
Airport San Diego International Airport (KSAN)

Arrival

Time 2026-04-22 05:20
Airport Phoenix Sky Harbor International Airport (KPHX)
Time Latitude Longitude Altitude Speed Heading
2026-04-22 04:08 32.73378 -117.20351 21 ft 0 kts 269°
2026-04-22 04:14 32.73378 -117.20347 21 ft 2 kts 268°
2026-04-22 04:15 32.73379 -117.20327 21 ft 2 kts 272°
2026-04-22 04:15 32.73378 -117.20308 21 ft 2 kts 276°
2026-04-22 04:15 32.73376 -117.20289 24 ft 2 kts 295°
2026-04-22 04:15 32.73365 -117.20274 25 ft 2 kts 341°
2026-04-22 04:16 32.73359 -117.20272 24 ft 0 kts 343°
2026-04-22 04:16 32.73360 -117.20272 24 ft 1 kts 343°
2026-04-22 04:16 32.73372 -117.20276 24 ft 3 kts 346°
2026-04-22 04:17 32.73400 -117.20275 21 ft 5 kts
2026-04-22 04:17 32.73418 -117.20269 21 ft 0 kts 15°
2026-04-22 04:17 32.73421 -117.20268 21 ft 2 kts 15°
2026-04-22 04:18 32.73424 -117.20267 21 ft 0 kts 15°
2026-04-22 04:22 32.73446 -117.20260 21 ft 9 kts 15°
2026-04-22 04:22 32.73521 -117.20233 22 ft 12 kts 25°
2026-04-22 04:22 32.73541 -117.20146 23 ft 13 kts 106°
2026-04-22 04:22 32.73509 -117.20020 23 ft 21 kts 106°
2026-04-22 04:23 32.73467 -117.19846 25 ft 23 kts 106°
2026-04-22 04:23 32.73421 -117.19656 23 ft 25 kts 106°
2026-04-22 04:23 32.73371 -117.19449 25 ft 27 kts 104°
2026-04-22 04:23 32.73321 -117.19239 20 ft 28 kts 105°
2026-04-22 04:24 32.73266 -117.19014 23 ft 29 kts 106°
2026-04-22 04:24 32.73214 -117.18794 25 ft 26 kts 105°
2026-04-22 04:24 32.73160 -117.18581 18 ft 29 kts 106°
2026-04-22 04:24 32.73109 -117.18369 18 ft 26 kts 105°
2026-04-22 04:25 32.73059 -117.18162 15 ft 24 kts 107°
2026-04-22 04:25 32.73009 -117.17958 15 ft 27 kts 105°
2026-04-22 04:25 32.72968 -117.17783 15 ft 22 kts 105°
2026-04-22 04:25 32.72950 -117.17688 14 ft 0 kts 85°
2026-04-22 04:26 32.72999 -117.17593 18 ft 15 kts 17°
2026-04-22 04:27 32.73028 -117.17610 16 ft 0 kts 283°
2026-04-22 04:27 32.73041 -117.17665 15 ft 33 kts 286°
2026-04-22 04:27 32.73170 -117.18197 18 ft 98 kts 286°
2026-04-22 04:27 32.73407 -117.19167 23 ft 145 kts 286°
2026-04-22 04:28 32.73687 -117.20366 485 ft 148 kts 288°
2026-04-22 04:28 32.73972 -117.21533 1107 ft 148 kts 289°
2026-04-22 04:28 32.74258 -117.22708 1716 ft 148 kts 287°
2026-04-22 04:28 32.74559 -117.23950 2043 ft 166 kts 287°
2026-04-22 04:29 32.74901 -117.25356 2261 ft 189 kts 287°
2026-04-22 04:29 32.75287 -117.26946 2509 ft 212 kts 286°
2026-04-22 04:29 32.75710 -117.28684 3050 ft 223 kts 285°
2026-04-22 04:29 32.76145 -117.30473 3878 ft 227 kts 285°
2026-04-22 04:30 32.76531 -117.32298 4716 ft 230 kts 273°
2026-04-22 04:30 32.76161 -117.34121 5423 ft 234 kts 235°
2026-04-22 04:30 32.74863 -117.35250 6287 ft 239 kts 198°
2026-04-22 04:30 32.73192 -117.35169 7130 ft 252 kts 162°
2026-04-22 04:31 32.71688 -117.34006 7913 ft 263 kts 145°
2026-04-22 04:31 32.70303 -117.32545 8680 ft 269 kts 142°
2026-04-22 04:31 32.68936 -117.30995 9435 ft 275 kts 142°
2026-04-22 04:31 32.67537 -117.29403 9875 ft 281 kts 142°
2026-04-22 04:32 32.66110 -117.27810 10039 ft 283 kts 143°
2026-04-22 04:32 32.64669 -117.26214 10727 ft 286 kts 140°
2026-04-22 04:32 32.63495 -117.24266 11431 ft 297 kts 120°
2026-04-22 04:32 32.62845 -117.21843 11755 ft 324 kts 100°
2026-04-22 04:33 32.62592 -117.19088 11932 ft 348 kts 98°
2026-04-22 04:33 32.62342 -117.16144 12148 ft 369 kts 98°
2026-04-22 04:33 32.62098 -117.13072 12631 ft 379 kts 94°
2026-04-22 04:33 32.62269 -117.09926 13220 ft 387 kts 80°
2026-04-22 04:34 32.63044 -117.06849 13851 ft 392 kts 68°
2026-04-22 04:34 32.64045 -117.03828 14417 ft 396 kts 68°
2026-04-22 04:34 32.65049 -117.00765 14986 ft 400 kts 68°
2026-04-22 04:34 32.66021 -116.97659 15550 ft 404 kts 73°
2026-04-22 04:35 32.66605 -116.94391 16103 ft 407 kts 85°
2026-04-22 04:35 32.66742 -116.91037 16666 ft 410 kts 90°
2026-04-22 04:35 32.66812 -116.87640 17229 ft 413 kts 90°
2026-04-22 04:35 32.66891 -116.84213 17794 ft 417 kts 90°
2026-04-22 04:36 32.66975 -116.80759 18367 ft 421 kts 90°
2026-04-22 04:36 32.67062 -116.77269 18875 ft 425 kts 90°
2026-04-22 04:36 32.67135 -116.73748 19399 ft 428 kts 91°
2026-04-22 04:36 32.67139 -116.70203 19930 ft 431 kts 92°
2026-04-22 04:37 32.67082 -116.66632 20458 ft 434 kts 94°
2026-04-22 04:37 32.66993 -116.63039 20977 ft 437 kts 94°
2026-04-22 04:37 32.66896 -116.59415 21482 ft 441 kts 94°
2026-04-22 04:37 32.66805 -116.55765 21941 ft 444 kts 94°
2026-04-22 04:38 32.66729 -116.52096 22522 ft 445 kts 93°
2026-04-22 04:38 32.66664 -116.48418 23003 ft 448 kts 93°
2026-04-22 04:38 32.66604 -116.44707 23498 ft 451 kts 93°
2026-04-22 04:38 32.66709 -116.40974 23920 ft 456 kts 85°
2026-04-22 04:39 32.67068 -116.37224 24291 ft 459 kts 84°
2026-04-22 04:39 32.67421 -116.33448 24664 ft 462 kts 85°
2026-04-22 04:39 32.67767 -116.29643 25037 ft 465 kts 85°
2026-04-22 04:39 32.68110 -116.25810 25432 ft 468 kts 85°
2026-04-22 04:40 32.68451 -116.21992 25710 ft 474 kts 86°
2026-04-22 04:40 32.68796 -116.18091 26023 ft 478 kts 86°
2026-04-22 04:40 32.69144 -116.14147 26367 ft 481 kts 86°
2026-04-22 04:40 32.69495 -116.10183 26692 ft 484 kts 86°
2026-04-22 04:41 32.69848 -116.06196 27003 ft 488 kts 86°
2026-04-22 04:41 32.70203 -116.02180 27316 ft 491 kts 86°
2026-04-22 04:41 32.70569 -115.98137 27615 ft 495 kts 85°
2026-04-22 04:41 32.70950 -115.94057 27900 ft 498 kts 85°
2026-04-22 04:42 32.71336 -115.89971 28296 ft 499 kts 85°
2026-04-22 04:42 32.71721 -115.85871 28640 ft 501 kts 85°
2026-04-22 04:42 32.72105 -115.81752 28973 ft 503 kts 86°
2026-04-22 04:42 32.72485 -115.77617 29293 ft 506 kts 86°
2026-04-22 04:43 32.72861 -115.73449 29614 ft 509 kts 86°
2026-04-22 04:43 32.73238 -115.69263 29885 ft 511 kts 86°
2026-04-22 04:43 32.73616 -115.65062 30221 ft 512 kts 85°
2026-04-22 04:43 32.73994 -115.60855 30602 ft 510 kts 86°
2026-04-22 04:44 32.74369 -115.56675 30906 ft 508 kts 86°
2026-04-22 04:44 32.75055 -115.48433 31008 ft 492 kts 88°
2026-04-22 04:45 32.75323 -115.40368 31003 ft 487 kts 92°
2026-04-22 04:45 32.75376 -115.32326 30992 ft 486 kts 92°
2026-04-22 04:46 32.75480 -115.24301 31007 ft 486 kts 91°
2026-04-22 04:46 32.75676 -115.16269 31005 ft 486 kts 91°
2026-04-22 04:47 32.75882 -115.08240 31005 ft 487 kts 91°
2026-04-22 04:47 32.76056 -115.00203 31010 ft 487 kts 91°
2026-04-22 04:48 32.76211 -114.92159 30993 ft 487 kts 91°
2026-04-22 04:48 32.76361 -114.84157 30995 ft 488 kts 91°
2026-04-22 04:49 32.76519 -114.76092 30999 ft 488 kts 91°
2026-04-22 04:49 32.76677 -114.68025 31004 ft 488 kts 91°
2026-04-22 04:50 32.76821 -114.59956 31007 ft 488 kts 91°
2026-04-22 04:50 32.76945 -114.51980 30646 ft 477 kts 92°
2026-04-22 04:50 32.76996 -114.48053 30212 ft 475 kts 92°
2026-04-22 04:51 32.77044 -114.44115 29717 ft 478 kts 92°
2026-04-22 04:51 32.77091 -114.40159 29197 ft 480 kts 92°
2026-04-22 04:51 32.77137 -114.36193 28681 ft 480 kts 92°
2026-04-22 04:51 32.77184 -114.32229 28154 ft 480 kts 92°
2026-04-22 04:52 32.77233 -114.28263 27662 ft 480 kts 91°
2026-04-22 04:52 32.77286 -114.24315 27177 ft 480 kts 91°
2026-04-22 04:52 32.77339 -114.20344 26702 ft 480 kts 91°
2026-04-22 04:52 32.77390 -114.16380 26232 ft 480 kts 91°
2026-04-22 04:53 32.77434 -114.12407 25767 ft 480 kts 91°
2026-04-22 04:53 32.77475 -114.08444 25313 ft 481 kts 91°
2026-04-22 04:53 32.77764 -114.04481 25015 ft 482 kts 84°
2026-04-22 04:53 32.78208 -114.00534 24950 ft 482 kts 84°
2026-04-22 04:54 32.78645 -113.96582 24969 ft 483 kts 84°
2026-04-22 04:54 32.79077 -113.92619 24972 ft 483 kts 84°
2026-04-22 04:54 32.79496 -113.88717 24972 ft 483 kts 84°
2026-04-22 04:54 32.79920 -113.84755 24958 ft 483 kts 84°
2026-04-22 04:55 32.80344 -113.80800 24968 ft 483 kts 84°
2026-04-22 04:55 32.80773 -113.76834 24964 ft 483 kts 84°
2026-04-22 04:55 32.81289 -113.72895 24942 ft 484 kts 77°
2026-04-22 04:55 32.82383 -113.69112 24949 ft 484 kts 64°
2026-04-22 04:56 32.84078 -113.65660 24662 ft 483 kts 52°
2026-04-22 04:56 32.86228 -113.62645 24251 ft 475 kts 46°
2026-04-22 04:56 32.88410 -113.59729 23786 ft 468 kts 46°
2026-04-22 04:56 32.90569 -113.56840 23564 ft 468 kts 46°
2026-04-22 04:57 32.92732 -113.53942 23302 ft 467 kts 46°
2026-04-22 04:57 32.94882 -113.51052 23045 ft 466 kts 47°
2026-04-22 04:57 32.97023 -113.48165 22783 ft 464 kts 47°
2026-04-22 04:57 32.99155 -113.45285 22524 ft 462 kts 47°
2026-04-22 04:58 33.01279 -113.42416 22255 ft 460 kts 47°
2026-04-22 04:58 33.03390 -113.39559 22002 ft 458 kts 47°
2026-04-22 04:58 33.05488 -113.36714 21917 ft 456 kts 47°
2026-04-22 04:58 33.07588 -113.33870 21621 ft 456 kts 47°
2026-04-22 04:59 33.09676 -113.31049 21340 ft 453 kts 47°
2026-04-22 04:59 33.11757 -113.28235 21062 ft 451 kts 47°
2026-04-22 04:59 33.13828 -113.25431 20775 ft 449 kts 47°
2026-04-22 04:59 33.15884 -113.22643 20489 ft 447 kts 47°
2026-04-22 05:00 33.17938 -113.19858 20210 ft 445 kts 47°
2026-04-22 05:00 33.19979 -113.17088 19933 ft 443 kts 47°
2026-04-22 05:00 33.21998 -113.14349 19707 ft 435 kts 47°
2026-04-22 05:00 33.23969 -113.11679 19582 ft 422 kts 47°
2026-04-22 05:01 33.25705 -113.08912 19305 ft 414 kts 59°
2026-04-22 05:01 33.26903 -113.05816 18909 ft 409 kts 73°
2026-04-22 05:01 33.27505 -113.02534 18560 ft 403 kts 86°
2026-04-22 05:01 33.27622 -112.99195 18281 ft 401 kts 91°
2026-04-22 05:02 33.27697 -112.95871 17966 ft 398 kts 91°
2026-04-22 05:02 33.27782 -112.92615 17730 ft 397 kts 91°
2026-04-22 05:02 33.27871 -112.89281 17443 ft 395 kts 91°
2026-04-22 05:02 33.27956 -112.86006 17172 ft 392 kts 91°
2026-04-22 05:03 33.28039 -112.82756 17032 ft 391 kts 90°
2026-04-22 05:03 33.28191 -112.79508 16701 ft 391 kts 88°
2026-04-22 05:03 33.28453 -112.76289 16315 ft 387 kts 86°
2026-04-22 05:03 33.28779 -112.73117 15951 ft 382 kts 85°
2026-04-22 05:04 33.29124 -112.69984 15585 ft 378 kts 85°
2026-04-22 05:04 33.29462 -112.66881 15221 ft 375 kts 85°
2026-04-22 05:04 33.29784 -112.63796 14856 ft 373 kts 85°
2026-04-22 05:04 33.30086 -112.60734 14494 ft 370 kts 86°
2026-04-22 05:05 33.30370 -112.57694 14136 ft 366 kts 86°
2026-04-22 05:05 33.30643 -112.54673 13779 ft 363 kts 86°
2026-04-22 05:05 33.30908 -112.51761 13557 ft 353 kts 86°
2026-04-22 05:05 33.31171 -112.48850 13050 ft 352 kts 86°
2026-04-22 05:06 33.31434 -112.45962 12713 ft 347 kts 86°
2026-04-22 05:06 33.31696 -112.43116 12385 ft 342 kts 87°
2026-04-22 05:06 33.31954 -112.40327 12220 ft 332 kts 87°
2026-04-22 05:06 33.32205 -112.37574 11715 ft 335 kts 87°
2026-04-22 05:07 33.32452 -112.34818 11357 ft 331 kts 87°
2026-04-22 05:07 33.32698 -112.32108 11117 ft 324 kts 88°
2026-04-22 05:07 33.32939 -112.29458 10872 ft 318 kts 87°
2026-04-22 05:07 33.33176 -112.26856 10631 ft 312 kts 88°
2026-04-22 05:08 33.33411 -112.24299 10388 ft 307 kts 87°
2026-04-22 05:08 33.33641 -112.21775 10149 ft 305 kts 88°
2026-04-22 05:08 33.33866 -112.19259 9908 ft 303 kts 88°
2026-04-22 05:08 33.34086 -112.16766 9640 ft 301 kts 88°
2026-04-22 05:09 33.34307 -112.14274 9338 ft 300 kts 88°
2026-04-22 05:09 33.34530 -112.11799 9035 ft 300 kts 88°
2026-04-22 05:09 33.34742 -112.09325 8736 ft 296 kts 91°
2026-04-22 05:09 33.34743 -112.06879 8443 ft 294 kts 94°
2026-04-22 05:10 33.34713 -112.04449 8148 ft 291 kts 94°
2026-04-22 05:10 33.34679 -112.02049 7856 ft 288 kts 94°
2026-04-22 05:10 33.34643 -111.99663 7562 ft 286 kts 94°
2026-04-22 05:10 33.34607 -111.97300 7273 ft 283 kts 94°
2026-04-22 05:11 33.34576 -111.94951 6987 ft 281 kts 93°
2026-04-22 05:11 33.34552 -111.92619 6709 ft 280 kts 92°
2026-04-22 05:11 33.34579 -111.90307 6447 ft 275 kts 91°
2026-04-22 05:11 33.34635 -111.88053 6155 ft 268 kts 90°
2026-04-22 05:12 33.34699 -111.85862 5863 ft 260 kts 90°
2026-04-22 05:12 33.34759 -111.83723 5564 ft 254 kts 90°
2026-04-22 05:12 33.34813 -111.81630 5276 ft 251 kts 90°
2026-04-22 05:12 33.34862 -111.79547 4985 ft 251 kts 90°
2026-04-22 05:13 33.34908 -111.77447 4689 ft 254 kts 90°
2026-04-22 05:13 33.34937 -111.76059 4552 ft 250 kts 90°
2026-04-22 05:13 33.35039 -111.73996 4541 ft 249 kts 79°
2026-04-22 05:13 33.35712 -111.72109 4545 ft 249 kts 51°
2026-04-22 05:14 33.36995 -111.70766 4493 ft 245 kts 22°
2026-04-22 05:14 33.38597 -111.70264 4359 ft 235 kts 356°
2026-04-22 05:14 33.40166 -111.70607 4252 ft 227 kts 332°
2026-04-22 05:14 33.41444 -111.71651 4225 ft 221 kts 308°
2026-04-22 05:15 33.42288 -111.73160 4223 ft 216 kts 291°
2026-04-22 05:15 33.42733 -111.74859 4228 ft 214 kts 275°
2026-04-22 05:15 33.42837 -111.76625 4225 ft 210 kts 269°
2026-04-22 05:15 33.42850 -111.78302 4221 ft 195 kts 268°
2026-04-22 05:16 33.42852 -111.79888 4250 ft 189 kts 268°
2026-04-22 05:16 33.42855 -111.81462 4080 ft 188 kts 268°
2026-04-22 05:16 33.42858 -111.83007 3845 ft 184 kts 268°
2026-04-22 05:16 33.42861 -111.84521 3620 ft 180 kts 268°
2026-04-22 05:17 33.42864 -111.86004 3388 ft 175 kts 267°
2026-04-22 05:17 33.42868 -111.87404 3154 ft 163 kts 268°
2026-04-22 05:17 33.42870 -111.88736 2953 ft 158 kts 268°
2026-04-22 05:17 33.42872 -111.90011 2765 ft 148 kts 267°
2026-04-22 05:18 33.42876 -111.92402 2399 ft 141 kts 267°
2026-04-22 05:18 33.42877 -111.93565 2220 ft 140 kts 268°
2026-04-22 05:18 33.42879 -111.94750 2048 ft 140 kts 269°
2026-04-22 05:19 33.42880 -111.95885 1887 ft 136 kts 269°
2026-04-22 05:19 33.42881 -111.97000 1701 ft 134 kts 270°
2026-04-22 05:19 33.42881 -111.98108 1520 ft 131 kts 271°
2026-04-22 05:19 33.42877 -111.99174 1319 ft 129 kts 272°
2026-04-22 05:20 33.42882 -112.00255 1164 ft 131 kts 272°
2026-04-22 05:20 33.42886 -112.01228 1129 ft 98 kts 270°
2026-04-22 05:20 33.42898 -112.01636 1127 ft 16 kts 306°
2026-04-22 05:20 33.42980 -112.01644 1123 ft 11 kts 30°
2026-04-22 05:21 33.43047 -112.01585 1119 ft 12 kts 32°
2026-04-22 05:21 33.43149 -112.01569 1123 ft 18 kts
2026-04-22 05:21 33.43231 -112.01525 1123 ft 14 kts 38°
2026-04-22 05:21 33.43288 -112.01419 1122 ft 16 kts 84°
2026-04-22 05:22 33.43287 -112.01279 1117 ft 18 kts 90°
2026-04-22 05:22 33.43323 -112.01221 1120 ft 9 kts 25°
2026-04-22 05:22 33.43334 -112.01215 1124 ft 0 kts 27°
2026-04-22 05:23 33.43335 -112.01214 1124 ft 1 kts 27°
2026-04-22 05:23 33.43354 -112.01201 1116 ft 4 kts 40°
2026-04-22 05:23 33.43379 -112.01174 1118 ft 0 kts 24°